Lapse_Rate
7.4 7.9 8.1 7.4 7.2 7.3 7.8 7.8 7.9 7.9 7.5 7.2 7.0 8.1 8.2 8.1 8.0 6.8 5.8 5.9 6.6 6.6 6.8 7.7 7.3 6.7 6.9 6.7 6.5 5.9 5.9 6.3 6.5 6.5 6.5 6.5 6.5 6.5 6.5 6.5 6.5 6.5 6.5 6.5 6.5 6.5 6.5 6.1 6.4 6.5 6.1 5.1 4.2 3.0
7.1 7.5 7.9 7.7 7.2 7.1 7.5 7.4 7.9 7.5 7.4 7.2 7.4 8.2 8.2 8.1 8.0 7.8 5.9 5.9 6.4 6.6 6.1 7.2 7.4 7.5 7.5 6.5 6.9 4.7 5.6 6.1 6.0 6.5 6.5 6.5 6.5 6.5 6.5 6.5 6.5 6.5 6.5 6.5 6.5 6.5 6.2 5.2 5.9 4.5 3.1 3.5 5.3 2.9
7.1 7.3 7.7 7.5 7.2 7.3 7.5 7.2 7.6 7.0 7.5 7.4 8.1 8.1 8.2 8.1 8.0 7.6 6.6 5.5 6.8 6.7 6.8 6.7 7.1 6.4 6.8 6.6 5.7 5.7 4.8 5.3 5.4 4.7 6.3 6.5 6.5 6.5 6.5 6.5 6.5 6.5 6.3 6.5 6.5 6.5 6.5 5.3 5.5 4.4 4.5 4.9 4.0 2.5
7.2 7.3 7.1 7.2 7.4 7.3 7.0 7.4 7.0 7.3 7.7 8.0 8.0 8.2 8.3 8.1 8.1 7.8 6.8 5.1 6.6 6.3 6.2 6.1 6.8 6.4 7.2 7.3 6.9 5.0 5.9 3.9 3.9 4.0 6.1 6.5 6.5 6.3 6.5 6.5 6.5 6.4 6.5 6.5 6.5 6.5 6.2 5.8 4.6 4.4 4.2 3.6 3.2 2.0
7.3 7.1 7.3 7.3 7.3 7.0 6.9 7.2 7.3 7.7 7.9 8.1 8.2 8.4 8.3 8.1 8.0 7.4 5.6 5.4 6.2 6.3 6.6 6.2 7.1 7.5 7.3 6.5 5.6 6.5 5.6 3.9 3.6 5.9 6.4 6.5 6.2 6.4 6.5 6.5 6.5 6.1 6.5 6.5 6.5 5.4 5.2 4.8 3.8 3.2 3.0 3.1 3.0 3.2
7.0 7.2 7.1 6.9 6.8 7.2 7.4 7.6 7.9 7.9 8.0 8.4 8.6 8.4 8.3 8.1 7.9 5.8 6.0 5.2 5.7 7.1 5.9 6.5 6.3 6.3 7.4 6.3 5.5 4.9 4.3 3.2 3.1 4.3 6.1 4.8 5.1 5.0 6.5 6.5 6.6 4.3 4.1 3.6 5.7 4.1 4.0 3.6 3.7 4.2 3.9 3.7 4.3 3.5
7.0 7.0 6.9 7.3 7.6 7.8 7.9 7.8 7.8 7.8 7.9 8.0 8.1 7.9 8.0 7.8 6.5 6.6 5.7 5.0 5.2 6.3 6.6 6.5 6.5 6.9 7.3 6.0 5.0 4.6 3.7 3.6 3.6 3.9 5.6 5.4 5.1 4.1 6.5 6.5 6.4 3.9 4.3 4.9 4.7 5.1 5.5 3.8 3.6 4.0 4.5 4.4 4.9 5.0
7.1 7.3 7.6 7.8 7.8 7.7 7.5 7.6 7.9 7.9 7.9 7.6 7.0 6.6 6.7 6.3 7.0 6.0 4.4 6.6 5.7 7.0 6.6 6.5 6.5 6.4 7.2 4.8 5.4 4.9 4.7 4.5 4.3 4.2 3.9 6.4 4.6 4.0 6.5 6.4 4.7 4.6 4.5 4.5 3.9 4.0 4.5 4.0 3.7 3.6 4.2 3.4 4.0 4.0
7.5 7.6 7.6 7.7 7.6 7.5 7.6 7.7 7.9 7.7 6.9 6.2 5.6 3.9 4.6 5.6 5.7 6.4 7.0 7.6 5.1 6.2 6.5 6.3 6.5 6.5 5.0 4.7 4.3 6.2 6.0 6.5 5.5 6.5 6.5 5.7 6.5 6.5 6.5 6.0 4.7 4.3 4.2 4.3 4.4 3.7 4.2 4.6 3.7 3.5 3.8 3.7 3.7 3.8
7.5 7.4 7.4 7.4 7.3 7.2 7.4 7.3 7.2 6.6 6.5 6.3 6.0 6.2 6.0 5.6 6.8 6.2 6.3 5.7 5.1 5.8 5.2 6.5 4.8 6.5 4.5 2.0 5.7 6.5 6.6 6.5 6.5 6.4 4.9 6.5 6.5 5.9 4.9 5.0 4.5 4.6 4.3 3.9 5.2 5.1 4.0 4.2 3.7 3.2 3.7 3.3 3.6 3.8
7.7 7.4 7.4 7.3 7.2 7.2 7.3 7.6 7.6 6.8 6.5 6.0 4.7 5.8 5.7 5.5 5.6 4.9 5.5 6.1 5.7 6.5 5.0 5.1 5.0 6.6 4.5 6.5 6.5 4.6 6.5 6.5 6.5 6.5 6.5 6.5 6.5 6.4 5.7 5.5 6.1 4.6 4.7 5.0 4.4 4.1 4.1 3.9 3.4 2.8 2.5 2.5 1.9 1.8
7.6 7.4 7.4 7.3 7.2 7.2 7.3 7.1 6.6 5.1 5.2 5.5 5.1 5.5 5.0 4.7 4.1 6.4 6.5 6.3 6.5 6.5 5.7 6.5 5.4 4.4 4.3 3.4 5.9 5.5 6.5 6.5 6.5 6.0 6.5 6.5 6.5 6.4 6.0 4.5 5.1 5.5 4.8 4.3 3.8 2.5 2.2 2.6 3.3 2.1 0.9 0.6 -0.2 -1.4
7.3 7.3 7.4 7.4 7.5 7.5 6.9 6.5 6.6 6.4 5.6 4.5 5.2 5.0 4.8 5.4 6.5 6.5 6.5 6.5 6.5 6.4 3.0 3.3 6.1 3.6 2.9 3.3 6.1 6.5 6.5 6.5 6.1 6.5 6.5 6.5 6.5 5.7 4.5 4.7 2.7 3.8 2.2 1.4 0.9 0.6 0.1 0.1 0.1 -0.2 -1.7 -3.1 -2.7 -3.1
6.9 7.3 6.9 6.7 6.6 6.7 6.8 6.1 5.9 4.9 4.7 3.9 4.7 6.5 6.5 6.5 6.5 6.5 6.5 6.5 3.0 1.7 2.8 3.3 3.4 5.9 2.0 6.5 6.5 6.5 6.5 6.5 6.5 6.5 6.5 6.5 5.8 4.3 2.4 2.5 1.9 2.2 1.4 1.0 0.6 0.1 -0.8 -0.9 -1.8 -2.4 -2.7 -2.7 -1.5 -1.9
6.5 6.2 6.5 6.3 6.4 6.1 5.9 6.0 5.8 4.0 4.4 4.5 4.7 6.5 6.5 4.7 4.5 5.5 5.8 1.9 1.6 2.5 2.9 3.9 4.4 3.9 6.5 6.5 6.5 6.5 6.5 6.5 6.5 6.5 6.5 4.8 5.2 3.4 3.5 2.9 2.3 2.1 2.1 2.0 2.0 1.0 0.2 0.1 0.5 1.1 1.0 0.6 0.2 0.7
6.4 6.2 7.1 6.6 5.2 4.8 5.0 5.2 4.6 4.9 4.4 4.9 5.2 5.8 3.1 5.9 6.5 6.2 6.7 4.7 2.9 1.0 2.5 1.8 6.5 6.5 6.5 6.5 6.5 6.5 6.5 6.5 6.5 6.5 5.1 4.6 4.3 3.8 3.8 3.8 2.9 2.7 2.1 1.8 2.5 2.0 1.7 2.2 2.0 2.0 2.4 2.6 2.6 3.1
6.7 5.9 6.7 6.6 6.4 6.3 6.0 5.6 5.3 6.2 5.0 6.2 6.0 5.9 5.6 5.7 3.1 6.1 6.4 4.7 3.6 2.2 6.5 6.5 6.5 6.5 6.5 6.5 6.5 6.5 6.5 6.5 5.1 5.0 4.2 4.4 4.6 4.5 4.0 3.9 3.3 3.2 2.6 1.8 2.2 2.1 2.3 2.5 2.9 4.2 4.7 4.7 5.1 5.0
6.7 6.1 6.7 6.5 5.5 4.9 5.0 5.1 4.1 5.3 6.6 5.2 6.5 6.3 5.3 5.7 6.2 5.4 4.5 3.9 5.2 5.1 5.0 6.4 6.0 6.5 6.5 6.5 6.5 6.5 5.1 3.6 4.5 5.0 5.2 5.1 4.9 5.2 5.3 5.0 4.8 4.7 4.6 5.0 5.4 5.0 4.6 4.0 4.3 5.5 5.8 5.8 5.8 5.9
5.7 5.3 6.2 6.2 5.2 5.1 5.4 5.1 5.2 5.8 4.5 3.4 3.9 4.0 4.4 5.3 5.2 4.5 4.9 4.8 6.0 6.7 6.3 6.5 6.5 6.5 6.5 6.3 6.5 4.4 4.7 2.9 4.4 5.2 4.9 5.1 5.8 5.7 5.8 5.9 5.1 5.2 5.5 5.4 5.7 5.7 5.6 5.7 5.3 5.3 5.5 6.2 6.1 6.0
5.4 5.6 5.9 5.7 5.4 5.7 6.5 5.0 5.8 5.3 6.1 4.3 3.0 4.3 4.5 4.9 5.5 5.1 5.5 6.0 7.0 6.3 6.4 6.5 6.5 5.6 5.8 4.2 2.3 2.8 2.2 2.1 4.8 6.1 5.4 5.0 4.9 5.5 5.4 5.6 5.2 5.4 5.5 5.9 6.0 5.9 6.1 5.9 5.6 5.6 5.5 5.7 4.3 4.2
5.5 4.8 5.9 5.3 5.8 6.0 5.9 4.9 5.1 4.7 4.8 4.8 3.1 3.2 3.9 5.5 5.4 5.5 5.9 5.9 6.3 6.4 6.5 5.9 4.8 2.5 3.0 2.7 2.1 1.5 2.7 3.5 3.3 4.0 5.0 5.6 4.9 5.6 5.5 5.0 4.8 4.6 5.5 5.4 5.4 5.5 5.7 5.8 5.3 5.2 5.1 4.9 4.1 4.6
5.0 6.7 5.4 5.7 5.4 6.4 6.1 5.0 5.3 5.2 4.9 4.9 4.3 5.0 6.0 6.4 6.4 6.4 5.3 6.4 6.4 6.4 5.5 3.3 2.9 3.5 3.3 4.7 3.5 4.7 3.8 4.6 4.9 3.9 4.0 4.5 5.5 5.7 5.6 4.9 4.8 4.0 3.8 5.3 5.6 5.6 5.5 5.2 4.9 5.0 5.5 5.7 5.4 5.0
6.4 6.5 4.8 5.4 5.4 4.2 4.4 4.1 6.1 5.5 6.5 6.1 4.6 6.4 6.6 6.3 5.2 5.4 6.5 6.3 5.8 3.8 2.6 2.9 3.8 4.5 4.4 4.7 4.8 5.0 5.1 5.2 4.7 4.3 4.3 4.7 4.7 4.7 4.8 4.8 4.4 5.1 5.3 4.8 5.0 5.1 4.7 4.6 4.5 4.8 5.0 5.4 5.3 5.3
5.9 5.7 3.2 3.7 4.6 6.1 3.9 3.5 5.2 5.4 4.6 6.3 6.5 6.5 6.5 5.8 5.3 6.4 6.5 5.8 3.8 2.7 3.5 4.4 4.3 4.9 5.2 5.6 5.1 5.5 5.4 5.5 4.9 4.2 4.6 5.2 5.3 5.2 5.1 4.9 5.2 5.0 5.2 5.0 4.9 4.7 4.7 4.6 4.4 4.1 3.7 4.3 3.2 3.7
3.7 3.2 2.6 5.9 2.9 6.1 6.5 6.5 6.5 6.5 6.5 6.5 6.5 6.5 6.5 4.2 6.5 6.5 6.5 6.5 5.7 3.3 3.2 4.6 5.3 5.4 5.2 4.6 4.7 5.0 5.7 5.8 5.6 5.2 4.4 5.1 4.8 5.1 5.2 5.1 4.8 4.8 4.9 5.2 5.0 4.9 5.2 5.0 5.0 5.0 3.7 3.0 4.1 3.9
6.5 2.5 5.2 6.3 5.7 6.5 6.5 6.5 6.5 6.5 6.5 6.5 6.5 4.6 3.4 6.5 6.5 6.5 6.5 6.2 6.2 5.5 5.4 5.3 5.3 5.5 5.7 5.3 5.0 4.7 5.2 5.3 5.6 5.3 5.0 5.5 5.6 5.6 5.3 5.3 5.3 5.2 4.6 5.7 5.7 5.6 5.7 5.4 5.6 5.8 5.4 4.4 3.5 4.0
6.5 6.5 5.1 5.2 5.1 5.8 5.9 3.4 4.8 6.4 6.5 6.5 6.5 6.5 6.5 6.5 6.5 6.5 5.1 4.7 5.5 5.3 5.0 4.7 5.3 5.5 5.4 4.7 4.2 3.4 3.3 4.6 5.8 4.6 4.0 4.5 4.4 4.4 5.0 5.2 4.1 2.7 2.7 5.4 5.9 6.1 6.0 5.8 5.8 5.8 6.0 2.5 2.9 4.3
4.4 5.6 6.5 4.6 4.8 4.5 6.5 6.5 6.5 6.5 6.5 5.3 6.0 6.5 6.5 6.5 6.5 3.6 3.0 2.5 2.6 3.5 5.3 5.2 4.9 5.1 4.5 3.8 3.1 2.5 2.2 3.0 3.1 3.2 3.4 2.9 2.1 2.6 3.1 2.8 3.1 3.9 4.0 4.5 6.0 5.9 6.0 5.5 3.9 6.2 6.2 3.1 1.3 2.6
3.9 3.3 5.3 6.4 4.5 4.4 4.8 6.3 6.4 3.8 4.7 4.6 6.5 6.5 6.0 3.8 0.9 1.2 1.4 1.5 2.0 4.5 4.8 4.9 4.3 3.9 3.3 2.8 2.9 3.2 3.3 3.5 3.9 3.9 2.8 2.9 3.1 2.7 1.7 3.0 3.3 4.1 4.7 5.2 5.7 5.8 5.4 3.9 3.1 1.7 1.7 1.8 0.0 2.2
4.4 4.4 4.8 4.7 6.5 6.5 3.6 2.9 1.5 0.7 2.1 3.1 3.2 3.9 3.8 1.5 0.4 -0.8 0.3 0.0 0.9 1.0 2.0 3.0 3.9 4.3 4.1 4.1 4.0 3.9 3.2 3.6 3.3 3.2 2.7 3.5 3.3 1.2 4.0 4.2 4.5 5.0 5.3 4.9 5.0 4.7 5.9 4.7 4.5 4.1 4.3 4.3 4.3 4.1
4.9 3.6 5.4 4.9 6.2 2.7 1.4 1.1 0.7 0.9 0.2 0.6 0.0 3.8 5.0 1.9 1.3 -0.8 1.2 -0.9 -1.5 -1.5 5.5 5.9 4.8 3.9 4.4 4.2 4.0 3.9 3.6 4.1 4.6 4.1 3.0 3.2 3.4 3.8 4.1 4.1 3.8 4.3 5.2 5.7 5.2 5.5 4.7 4.6 4.5 4.3 4.2 4.0 3.8 3.8
2.2 2.6 4.1 6.5 5.4 2.7 1.8 2.5 1.7 2.0 0.9 1.2 2.7 0.5 2.4 4.5 5.3 0.4 -2.5 0.8 5.0 5.5 3.9 5.5 5.6 5.4 4.0 2.2 2.5 1.5 1.7 2.8 5.4 5.2 5.4 4.8 4.2 3.8 3.4 3.2 3.6 3.9 5.3 5.6 3.1 3.9 4.5 4.6 4.5 4.3 4.0 3.6 3.5 3.2
2.6 1.3 1.6 4.8 5.1 3.9 3.7 4.2 4.4 3.5 1.2 1.7 1.6 -0.2 1.3 3.3 5.0 -0.3 0.3 3.5 5.0 5.8 6.2 5.4 5.3 4.1 3.0 2.5 2.6 3.0 3.4 3.8 4.4 4.6 4.6 4.2 3.8 3.7 3.4 3.4 3.8 4.4 5.3 3.2 3.9 5.0 4.7 4.2 3.8 3.2 2.9 2.3 1.8 1.5
Wind_Speed
33 31 29 27 25 24 26 26 26 24 26 30 33 31 28 28 28 12 4 10 8 5 5 5 4 7 7 3 6 4 4 1 3 5 3 3 3 1 0 5 8 10 8 4 5 6 8 6 3 7 6 1 4 6
31 30 27 26 23 22 21 24 25 23 26 28 29 27 27 27 26 20 3 6 8 4 3 2 8 12 15 19 6 7 5 6 5 3 3 3 3 3 3 3 3 2 6 5 7 6 6 4 4 1 5 5 4 7
27 27 25 24 21 21 20 22 22 23 25 25 26 26 26 27 26 19 3 4 5 4 4 7 9 7 12 16 4 3 3 6 5 4 4 3 2 3 3 4 1 3 4 4 3 4 5 6 0 3 4 5 7 6
22 22 21 21 19 19 20 22 23 24 24 25 25 25 24 24 25 21 5 3 6 2 3 5 3 4 9 8 5 7 6 6 6 3 3 2 2 4 3 2 4 6 5 4 2 3 1 3 6 6 6 8 7 6
20 19 19 18 18 21 23 24 24 24 23 23 24 24 23 23 23 12 2 2 5 4 4 3 5 8 2 4 7 6 4 6 3 3 2 3 2 3 1 2 3 2 4 4 4 6 5 5 7 7 8 7 8 9
20 20 19 22 25 25 24 24 22 21 20 20 20 20 21 22 21 4 2 5 7 6 3 3 2 4 5 4 6 6 4 4 3 3 2 1 2 3 3 4 5 6 5 6 5 5 6 7 7 7 8 9 8 9
24 24 27 26 25 24 23 22 20 19 19 17 20 18 19 21 7 4 5 3 18 7 3 2 2 2 5 4 3 3 5 2 3 2 1 2 2 3 2 4 5 7 6 5 5 5 5 6 6 8 7 7 7 4
27 27 27 26 25 23 21 19 18 17 19 18 14 11 14 17 9 5 11 7 15 4 2 1 2 3 4 2 2 1 2 2 2 3 1 3 1 2 4 10 5 8 9 8 9 7 7 8 6 8 6 7 7 6
26 25 24 23 22 20 18 17 17 18 14 8 16 19 6 7 4 3 19 28 3 2 2 3 4 4 2 2 2 2 2 2 2 1 2 3 2 4 9 9 11 11 10 12 12 7 7 6 9 8 8 8 7 6
22 21 21 20 19 18 17 19 20 15 19 19 7 3 3 4 23 13 5 3 3 3 2 2 2 2 4 1 1 4 1 2 0 4 1 2 4 12 9 13 11 12 13 6 4 5 6 5 8 8 10 8 9 7
20 18 18 18 17 17 18 15 12 8 4 1 3 3 2 4 4 2 3 3 2 2 1 1 3 5 1 3 3 1 2 1 0 3 3 2 4 5 9 15 14 8 6 7 8 7 6 7 10 9 7 7 7 7
20 19 18 18 19 18 15 10 5 2 1 2 3 1 2 3 4 5 2 2 2 3 1 4 3 3 1 3 3 1 2 1 3 2 1 3 3 6 8 9 9 8 8 7 5 7 5 8 6 10 9 8 5 7
22 21 20 20 18 14 10 10 16 9 7 3 3 4 3 3 6 4 2 2 1 1 2 2 1 3 2 3 3 3 3 4 1 2 3 3 3 5 7 6 11 9 12 10 10 9 11 12 10 9 9 5 7 8
18 17 17 14 12 9 9 13 14 8 3 3 2 5 2 4 1 3 4 4 4 3 4 4 2 3 2 3 3 4 4 2 2 3 5 2 1 3 6 7 10 11 11 12 11 9 12 12 10 7 7 5 8 7
18 12 9 6 7 8 12 13 12 3 2 3 3 2 2 2 2 3 3 2 2 1 4 3 2 2 1 3 1 2 2 3 5 4 2 3 4 4 4 5 8 7 7 8 8 9 9 9 8 8 6 6 6 7
7 5 4 3 12 16 15 9 1 0 2 3 3 3 2 3 3 3 4 3 2 2 2 3 2 3 2 3 3 6 5 5 4 2 2 3 4 4 5 4 6 6 7 7 7 7 7 7 8 7 6 6 5 6
7 1 5 10 14 14 9 1 2 2 2 3 0 1 2 2 3 2 2 3 2 3 2 3 4 7 1 1 3 4 5 3 3 2 2 2 5 5 5 5 5 6 7 6 7 5 5 6 7 7 7 4 5 5
2 3 5 9 7 5 3 1 2 1 3 2 2 1 2 2 1 2 3 2 1 1 2 3 2 3 4 4 3 3 2 1 2 2 2 5 6 6 5 7 6 5 6 5 6 5 6 6 5 4 6 5 5 5
5 6 10 8 4 2 2 3 3 2 3 2 2 2 2 2 2 2 2 2 2 1 2 3 3 3 3 2 3 2 2 2 3 1 2 4 6 5 7 8 5 4 5 4 5 4 4 5 5 5 5 5 4 3
13 13 9 2 3 1 2 3 1 1 2 3 0 1 2 3 2 2 2 2 3 2 2 3 3 3 2 2 3 3 3 3 5 5 2 2 3 6 6 7 4 5 4 4 3 4 3 3 4 5 5 5 4 4
2 3 3 2 1 0 2 2 3 3 2 2 1 2 2 0 2 2 2 2 3 2 2 2 2 2 4 1 2 2 4 5 4 4 4 4 4 5 5 4 5 3 4 2 3 3 4 3 4 4 5 4 4 4
2 5 1 1 1 2 2 3 2 3 1 2 0 2 3 2 2 2 2 2 2 3 3 3 3 3 2 2 1 2 4 4 4 3 5 7 5 4 5 5 5 4 3 4 4 4 3 3 4 4 4 4 5 5
4 0 1 1 0 2 5 2 0 2 1 2 1 1 2 2 2 1 2 2 2 3 3 2 4 3 4 3 3 3 3 4 3 3 4 4 3 4 4 5 4 5 4 2 3 3 3 4 5 4 3 4 4 4
4 1 2 1 1 3 3 3 2 2 3 1 1 3 2 2 2 1 3 2 2 0 1 3 5 4 2 4 2 2 2 3 3 3 3 5 4 3 4 4 3 2 2 4 4 4 4 3 5 3 3 3 3 4
4 5 4 4 3 1 1 2 2 2 2 2 1 3 3 2 0 2 3 1 1 2 1 3 3 5 4 2 1 1 2 3 4 4 1 3 3 3 3 2 2 2 3 5 4 4 4 4 3 4 3 3 5 5
1 3 3 3 2 2 2 2 2 2 1 2 3 2 2 1 2 4 1 3 2 1 2 3 4 3 2 2 3 2 3 3 3 3 1 4 4 5 5 5 3 1 1 4 4 5 5 4 5 5 5 6 5 5
1 3 2 2 1 1 3 2 1 2 2 3 3 1 1 2 4 1 1 1 2 2 3 2 2 3 3 3 2 1 1 3 4 3 3 4 4 2 3 4 4 3 3 4 5 5 6 6 5 4 4 2 3 5
3 1 2 3 1 1 2 2 2 3 3 2 2 1 3 4 3 2 3 2 1 2 4 2 1 3 3 4 5 5 4 6 7 7 6 5 3 3 4 3 2 5 4 4 4 4 4 5 5 5 4 4 3 3
1 2 2 3 1 1 3 5 3 2 1 2 3 3 3 2 2 2 3 2 1 1 2 1 1 3 5 5 4 4 6 5 6 4 4 2 1 2 0 2 3 2 3 4 5 4 5 5 5 5 6 4 3 3
2 1 1 2 3 4 4 4 3 3 2 3 2 2 3 3 3 2 2 2 2 3 3 3 2 2 5 6 5 3 1 3 3 3 4 3 4 3 3 3 3 2 3 3 3 2 1 3 7 4 6 5 5 5
1 1 1 3 3 3 4 3 2 1 1 3 2 4 5 3 3 3 5 3 2 2 4 4 4 3 4 4 4 4 2 0 5 5 4 3 5 5 4 3 2 2 2 2 3 2 3 3 6 7 8 8 8 7
0 3 3 3 4 4 3 2 2 2 2 1 3 2 2 1 3 3 2 3 3 3 4 3 4 4 5 3 3 2 5 4 5 5 6 4 4 4 4 3 3 2 2 4 4 3 6 7 7 8 8 10 10 10
1 2 2 3 4 5 3 2 3 3 2 2 3 2 3 3 4 3 2 2 1 2 2 2 1 3 6 6 5 5 6 5 8 7 6 7 7 5 3 2 2 2 4 3 4 6 9 12 10 11 11 12 11 12
Wind_Direction
227 225 222 224 224 223 221 217 212 209 205 191 196 199 192 194 200 185 194 191 189 229 262 260 248 234 262 257 215 178 106 142 145 196 194 236 176 164 167 185 169 176 170 187 189 216 253 223 328 208 222 277 144 124
213 212 210 210 214 213 212 211 201 198 189 186 190 187 188 192 197 185 193 187 197 222 234 271 250 242 242 282 253 193 169 144 166 157 188 137 202 125 346 216 133 157 183 174 184 205 225 276 210 347 169 154 149 114
196 196 198 200 199 204 201 197 187 183 177 180 181 183 187 191 193 187 165 152 181 227 281 254 227 220 248 236 190 141 257 145 168 161 154 174 135 127 160 238 111 291 177 175 113 235 217 208 56 126 111 122 131 134
167 173 179 182 187 185 182 173 165 167 170 174 176 180 185 191 194 184 182 183 187 170 226 262 221 194 256 211 192 136 235 91 113 104 79 109 143 190 196 254 200 203 149 179 248 286 264 235 169 165 138 117 109 133
143 149 158 162 162 159 152 151 156 159 164 168 173 179 185 188 187 176 126 210 209 202 225 215 187 223 151 262 124 103 152 117 115 88 100 180 177 122 168 2 264 202 176 151 222 220 199 218 201 193 173 187 178 162
125 128 129 132 133 133 139 142 147 152 157 161 169 175 175 176 174 111 192 237 224 217 250 176 204 163 94 52 63 77 67 58 76 116 175 241 293 118 154 203 233 211 188 178 193 199 206 211 198 171 171 177 174 173
96 110 116 118 121 124 128 133 140 146 150 156 158 166 174 168 170 179 194 236 177 201 243 168 87 75 111 79 25 26 28 49 96 117 135 168 257 106 125 213 209 202 192 203 202 220 221 166 204 207 166 159 141 134
96 104 105 108 115 121 125 127 131 139 142 140 149 161 181 202 194 248 255 220 151 185 291 69 98 102 175 103 74 21 65 41 0 149 83 169 327 87 239 237 218 242 272 276 256 208 226 200 189 182 155 146 146 146
89 96 102 108 110 112 117 121 125 123 110 146 187 184 197 204 177 147 149 154 116 138 197 179 143 176 108 112 116 85 83 51 313 87 239 120 215 220 230 215 210 215 199 219 230 209 213 204 193 181 158 157 147 173
82 88 95 102 107 111 114 115 114 140 174 195 202 158 176 163 110 95 105 148 141 239 231 113 108 124 104 75 78 147 154 143 194 234 124 171 252 248 245 230 224 217 215 181 156 242 220 191 183 172 177 169 166 169
78 83 90 95 100 108 118 124 126 150 214 305 17 35 293 341 130 137 86 121 223 48 20 135 137 136 330 108 153 175 166 217 5 271 132 251 264 256 270 242 229 217 206 200 212 233 221 186 179 164 142 139 140 141
83 82 85 90 95 102 110 124 151 328 257 237 134 98 14 29 39 75 2 8 73 186 176 114 153 122 95 108 99 90 141 105 249 149 168 250 266 342 343 342 244 196 155 136 128 116 109 96 125 129 125 125 108 104
69 71 84 89 94 81 43 9 18 33 332 345 34 34 37 337 58 109 173 314 15 167 197 132 111 124 41 61 74 111 146 217 133 184 233 238 307 344 341 8 25 96 106 101 89 83 90 88 81 106 106 87 104 98
74 71 66 57 43 25 14 0 360 355 17 36 65 9 94 337 307 188 176 187 226 150 138 118 89 135 178 106 142 135 218 173 259 225 231 203 165 341 14 31 77 76 80 89 84 83 88 96 89 78 91 105 111 108
93 94 76 14 349 324 312 310 320 7 39 19 34 355 357 266 26 15 348 0 321 118 109 79 44 102 71 102 180 110 109 234 216 234 219 166 137 108 83 92 95 86 87 86 90 93 94 95 106 105 101 102 100 106
152 177 340 258 257 269 273 297 83 217 23 45 32 43 337 51 324 338 347 308 292 85 90 66 113 65 259 162 143 210 179 217 240 207 212 133 112 123 126 101 93 101 105 106 102 104 106 109 109 109 98 96 95 107
96 40 335 1 339 320 335 22 25 51 65 346 193 191 172 183 204 229 217 248 270 69 168 125 143 199 116 190 220 191 204 213 183 167 126 127 126 125 110 104 103 104 106 110 117 108 105 102 104 108 114 103 108 108
325 256 311 345 2 348 341 64 83 73 253 238 269 166 218 218 185 211 231 239 148 184 132 196 159 172 202 198 237 201 163 201 66 111 133 122 116 126 148 149 141 125 119 116 118 117 123 123 128 126 126 129 117 117
276 290 289 347 25 27 342 303 120 241 249 208 215 209 178 207 223 230 248 274 266 274 190 158 183 234 224 220 190 173 130 167 154 123 108 121 132 142 160 160 139 119 124 125 133 140 151 160 155 149 144 144 137 136
280 281 274 263 18 349 296 280 111 210 263 234 59 278 196 213 188 192 179 218 228 204 210 198 218 169 212 231 206 155 162 161 139 156 127 125 143 143 170 168 152 138 132 138 133 133 140 140 137 148 156 156 144 156
266 231 168 150 149 329 263 288 271 217 272 224 223 114 274 227 229 192 207 191 191 219 218 215 184 222 179 192 211 135 145 155 169 159 172 155 154 147 157 150 142 143 152 149 164 161 153 164 156 154 155 163 163 169
269 152 104 6 128 247 250 240 236 286 282 264 57 188 270 276 233 228 165 228 239 211 203 182 176 171 137 173 154 152 163 166 166 113 100 126 156 165 169 161 155 165 172 178 171 173 175 159 148 150 158 162 161 159
310 163 3 118 29 30 260 6 296 249 230 268 25 290 260 241 232 85 260 223 243 220 196 149 137 126 149 148 119 113 145 142 134 133 140 143 138 138 145 156 156 167 176 176 146 143 148 145 142 141 139 142 154 155
38 73 96 202 127 253 350 332 293 288 350 329 237 275 270 241 140 248 255 244 269 11 74 118 129 118 89 135 136 169 157 143 119 90 121 141 147 155 160 167 156 147 153 137 144 141 141 144 141 140 140 140 137 146
69 297 89 313 313 41 309 289 288 335 290 258 288 301 296 21 292 253 236 348 22 12 52 128 148 161 160 142 123 134 156 145 146 151 172 125 111 112 107 113 121 139 132 139 145 146 151 144 149 160 156 142 160 168
87 266 115 209 289 110 259 271 275 262 246 288 261 289 18 48 287 255 19 355 16 117 172 183 174 158 155 149 153 166 185 145 123 119 142 150 152 156 152 148 146 210 173 137 141 156 155 158 169 173 175 185 176 167
16 299 277 228 132 17 346 311 274 138 257 239 262 353 18 265 255 273 320 358 330 347 314 264 169 173 166 160 114 86 116 137 141 142 113 99 88 96 150 171 189 217 171 151 152 157 167 169 173 178 172 157 185 176
206 87 130 286 357 49 188 304 254 231 239 264 64 334 209 214 248 238 220 252 244 327 319 302 137 148 154 142 134 121 85 95 90 89 83 56 41 72 95 85 53 126 139 140 146 144 158 171 172 175 171 174 194 173
297 276 95 303 290 293 222 199 234 245 226 105 158 263 256 240 216 205 250 219 259 272 310 341 29 109 107 102 99 108 125 134 133 135 144 147 140 280 231 112 114 82 103 108 114 128 161 169 177 169 161 150 157 112
301 94 20 295 175 240 243 188 223 243 233 189 188 300 295 291 253 202 159 147 167 208 216 186 137 136 149 146 137 113 76 129 132 146 174 196 204 173 153 146 136 130 123 127 139 106 49 132 123 114 119 118 116 116
180 92 263 241 259 253 233 236 264 217 218 228 232 223 255 265 296 244 204 185 162 169 214 186 168 144 145 141 148 147 145 77 122 111 101 104 117 124 132 132 126 132 110 142 149 143 135 134 135 133 127 120 118 117
110 207 190 267 278 283 345 207 237 226 281 266 260 212 314 186 249 287 274 123 163 196 207 189 173 182 182 172 158 145 151 140 143 130 122 113 113 117 116 116 104 101 124 141 129 128 135 128 125 124 121 120 117 114
309 316 270 280 315 322 312 41 343 291 312 274 273 225 199 174 242 266 312 357 178 184 165 154 135 124 146 143 144 136 126 126 122 120 123 124 122 120 112 109 118 120 126 114 112 127 124 118 114 114 112 110 107 107